Time,TemperatureF,DewpointF,PressureIn,WindDirection,WindDirectionDegrees,WindSpeedMPH,WindSpeedGustMPH,Humidity,HourlyPrecipIn,Conditions,Clouds,dailyrainin,SoftwareType,DateUTC
2013-05-20 00:00:00,65.7,46.0,21.54,NNW,330,1.0,3.0,49,0.00,,---,0.00,VWS V13.01,2013-05-20 07:00:00,
2013-05-20 00:05:00,65.8,47.2,21.54,NNW,330,3.0,5.0,51,0.00,,---,0.00,VWS V13.01,2013-05-20 07:05:00,
2013-05-20 00:10:00,66.3,48.2,21.54,NNW,331,4.0,6.0,52,0.00,,---,0.00,VWS V13.01,2013-05-20 07:10:00,
2013-05-20 00:15:00,66.9,48.7,21.54,NNW,346,4.0,7.0,52,0.00,,---,0.00,VWS V13.01,2013-05-20 07:15:00,
2013-05-20 00:20:00,67.4,49.2,21.54,NNW,347,6.0,7.0,52,0.00,,---,0.00,VWS V13.01,2013-05-20 07:20:00,
2013-05-20 00:25:00,67.7,49.5,21.54,NNW,336,3.0,8.0,52,0.00,,---,0.00,VWS V13.01,2013-05-20 07:25:00,
2013-05-20 00:30:00,67.9,49.7,21.54,NNW,337,3.0,8.0,52,0.00,,---,0.00,VWS V13.01,2013-05-20 07:30:00,
2013-05-20 00:35:00,68.0,49.2,21.54,North,350,5.0,8.0,51,0.00,,---,0.00,VWS V13.01,2013-05-20 07:35:00,
2013-05-20 00:40:00,68.2,49.4,21.53,North,353,5.0,8.0,51,0.00,,---,0.00,VWS V13.01,2013-05-20 07:40:00,
2013-05-20 00:45:00,68.2,49.4,21.53,North,349,6.0,9.0,51,0.00,,---,0.00,VWS V13.01,2013-05-20 07:45:00,
2013-05-20 00:50:00,68.4,49.6,21.54,NNW,346,5.0,9.0,51,0.00,,---,0.00,VWS V13.01,2013-05-20 07:50:00,
2013-05-20 00:55:00,68.3,49.5,21.54,NNW,337,6.0,9.0,51,0.00,,---,0.00,VWS V13.01,2013-05-20 07:55:00,
2013-05-20 01:00:00,68.3,49.5,21.54,North,350,3.0,11.0,51,0.00,,---,0.00,VWS V13.01,2013-05-20 08:00:00,
2013-05-20 01:05:00,68.2,49.4,21.54,NNW,344,4.0,8.0,51,0.00,,---,0.00,VWS V13.01,2013-05-20 08:05:00,
2013-05-20 01:10:00,68.1,49.8,21.54,North,354,6.0,8.0,52,0.00,,---,0.00,VWS V13.01,2013-05-20 08:10:00,
2013-05-20 01:15:00,67.9,49.7,21.54,North,350,4.0,8.0,52,0.00,,---,0.00,VWS V13.01,2013-05-20 08:15:00,
2013-05-20 01:20:00,67.8,49.5,21.54,NNW,345,3.0,8.0,52,0.00,,---,0.00,VWS V13.01,2013-05-20 08:20:00,
2013-05-20 01:25:00,67.7,49.5,21.54,North,358,5.0,8.0,52,0.00,,---,0.00,VWS V13.01,2013-05-20 08:25:00,
2013-05-20 01:30:00,67.6,49.4,21.54,NNW,348,3.0,8.0,52,0.00,,---,0.00,VWS V13.01,2013-05-20 08:30:00,
2013-05-20 01:35:00,67.3,49.1,21.54,NNW,348,1.0,5.0,52,0.00,,---,0.00,VWS V13.01,2013-05-20 08:35:00,
2013-05-20 01:40:00,67.0,49.3,21.55,NNW,347,3.0,8.0,53,0.00,,---,0.00,VWS V13.01,2013-05-20 08:40:00,
2013-05-20 01:45:00,66.7,49.0,21.55,NNW,347,3.0,8.0,53,0.00,,---,0.00,VWS V13.01,2013-05-20 08:45:00,
2013-05-20 01:50:00,66.6,49.5,21.54,North,355,3.0,8.0,54,0.00,,---,0.00,VWS V13.01,2013-05-20 08:50:00,
2013-05-20 01:55:00,66.5,49.4,21.54,North,355,3.0,8.0,54,0.00,,---,0.00,VWS V13.01,2013-05-20 08:55:00,
2013-05-20 02:00:00,66.3,49.7,21.55,NNW,347,4.0,8.0,55,0.00,,---,0.00,VWS V13.01,2013-05-20 09:00:00,
2013-05-20 02:05:00,66.2,49.6,21.55,NNW,336,3.0,9.0,55,0.00,,---,0.00,VWS V13.01,2013-05-20 09:05:00,
2013-05-20 02:10:00,66.2,49.6,21.55,NNW,348,5.0,9.0,55,0.00,,---,0.00,VWS V13.01,2013-05-20 09:10:00,
2013-05-20 02:15:00,66.1,49.5,21.55,NNW,348,3.0,9.0,55,0.00,,---,0.00,VWS V13.01,2013-05-20 09:15:00,
2013-05-20 02:20:00,66.1,49.5,21.55,NNW,328,4.0,9.0,55,0.00,,---,0.00,VWS V13.01,2013-05-20 09:20:00,
2013-05-20 02:25:00,66.2,49.6,21.55,North,359,3.0,9.0,55,0.00,,---,0.00,VWS V13.01,2013-05-20 09:25:00,
2013-05-20 02:30:00,66.3,49.7,21.55,North,350,3.0,9.0,55,0.00,,---,0.00,VWS V13.01,2013-05-20 09:30:00,
2013-05-20 02:35:00,66.2,49.6,21.55,North,352,4.0,8.0,55,0.00,,---,0.00,VWS V13.01,2013-05-20 09:35:00,
2013-05-20 02:40:00,66.1,49.5,21.54,NNW,340,5.0,8.0,55,0.00,,---,0.00,VWS V13.01,2013-05-20 09:40:00,
2013-05-20 02:45:00,66.0,49.4,21.55,NNW,339,5.0,9.0,55,0.00,,---,0.00,VWS V13.01,2013-05-20 09:45:00,
2013-05-20 02:50:00,65.9,49.3,21.55,NNW,337,5.0,9.0,55,0.00,,---,0.00,VWS V13.01,2013-05-20 09:50:00,
2013-05-20 02:55:00,65.8,49.2,21.55,North,349,5.0,9.0,55,0.00,,---,0.00,VWS V13.01,2013-05-20 09:55:00,
2013-05-20 03:00:00,65.8,49.2,21.55,North,354,5.0,10.0,55,0.00,,---,0.00,VWS V13.01,2013-05-20 10:00:00,
2013-05-20 03:05:00,65.7,49.1,21.55,North,349,4.0,11.0,55,0.00,,---,0.00,VWS V13.01,2013-05-20 10:05:00,
2013-05-20 03:10:00,65.7,48.6,21.55,NNW,333,6.0,11.0,54,0.00,,---,0.00,VWS V13.01,2013-05-20 10:10:00,
2013-05-20 03:15:00,65.7,48.6,21.55,NNW,345,8.0,12.0,54,0.00,,---,0.00,VWS V13.01,2013-05-20 10:15:00,
2013-05-20 03:20:00,65.7,48.6,21.55,North,355,5.0,12.0,54,0.00,,---,0.00,VWS V13.01,2013-05-20 10:20:00,
2013-05-20 03:25:00,65.6,48.5,21.56,NNW,339,3.0,12.0,54,0.00,,---,0.00,VWS V13.01,2013-05-20 10:25:00,
2013-05-20 03:30:00,65.5,48.4,21.55,NNW,342,3.0,6.0,54,0.00,,---,0.00,VWS V13.01,2013-05-20 10:30:00,
2013-05-20 03:35:00,65.4,48.3,21.56,NNW,338,3.0,7.0,54,0.00,,---,0.00,VWS V13.01,2013-05-20 10:35:00,
2013-05-20 03:40:00,65.2,48.2,21.56,NNW,339,2.0,7.0,54,0.00,,---,0.00,VWS V13.01,2013-05-20 10:40:00,
2013-05-20 03:45:00,65.1,48.1,21.56,NNW,338,5.0,7.0,54,0.00,,---,0.00,VWS V13.01,2013-05-20 10:45:00,
2013-05-20 03:50:00,65.1,48.1,21.56,NNW,331,5.0,10.0,54,0.00,,---,0.00,VWS V13.01,2013-05-20 10:50:00,
2013-05-20 03:55:00,65.1,48.1,21.56,NNW,331,4.0,10.0,54,0.00,,---,0.00,VWS V13.01,2013-05-20 10:55:00,
2013-05-20 04:00:00,65.0,48.0,21.56,NNW,335,4.0,4.0,54,0.00,,---,0.00,VWS V13.01,2013-05-20 11:00:00,
2013-05-20 04:05:00,64.9,47.9,21.56,NNW,338,4.0,10.0,54,0.00,,---,0.00,VWS V13.01,2013-05-20 11:05:00,
2013-05-20 04:10:00,64.9,47.9,21.56,NNW,342,3.0,10.0,54,0.00,,---,0.00,VWS V13.01,2013-05-20 11:10:00,
2013-05-20 04:15:00,64.8,47.8,21.56,North,351,3.0,10.0,54,0.00,,---,0.00,VWS V13.01,2013-05-20 11:15:00,
2013-05-20 04:20:00,64.7,47.7,21.56,NNW,343,4.0,10.0,54,0.00,,---,0.00,VWS V13.01,2013-05-20 11:20:00,
2013-05-20 04:25:00,64.7,47.7,21.56,NNW,344,3.0,10.0,54,0.00,,---,0.00,VWS V13.01,2013-05-20 11:25:00,
2013-05-20 04:30:00,64.6,48.1,21.56,NNW,344,3.0,5.0,55,0.00,,---,0.00,VWS V13.01,2013-05-20 11:30:00,
2013-05-20 04:35:00,64.5,47.5,21.56,North,349,4.0,8.0,54,0.00,,---,0.00,VWS V13.01,2013-05-20 11:35:00,
2013-05-20 04:40:00,64.6,48.1,21.56,NNW,345,4.0,8.0,55,0.00,,---,0.00,VWS V13.01,2013-05-20 11:40:00,
2013-05-20 04:45:00,64.6,47.6,21.56,NNW,341,6.0,8.0,54,0.00,,---,0.00,VWS V13.01,2013-05-20 11:45:00,
2013-05-20 04:50:00,64.5,47.5,21.56,NNW,338,5.0,8.0,54,0.00,,---,0.00,VWS V13.01,2013-05-20 11:50:00,
2013-05-20 04:55:00,64.3,47.3,21.56,NNW,345,3.0,8.0,54,0.00,,---,0.00,VWS V13.01,2013-05-20 11:55:00,
2013-05-20 05:00:00,64.2,47.2,21.56,North,351,5.0,5.0,54,0.00,,---,0.00,VWS V13.01,2013-05-20 12:00:00,
2013-05-20 05:05:00,64.2,47.2,21.56,North,354,6.0,8.0,54,0.00,,---,0.00,VWS V13.01,2013-05-20 12:05:00,
2013-05-20 05:10:00,64.3,47.3,21.56,North,357,5.0,9.0,54,0.00,,---,0.00,VWS V13.01,2013-05-20 12:10:00,
2013-05-20 05:15:00,64.2,47.2,21.56,NNW,347,7.0,9.0,54,0.00,,---,0.00,VWS V13.01,2013-05-20 12:15:00,
2013-05-20 05:20:00,64.1,47.1,21.56,NNW,334,4.0,9.0,54,0.00,,---,0.00,VWS V13.01,2013-05-20 12:20:00,
2013-05-20 05:25:00,64.0,47.0,21.56,NNW,333,6.0,9.0,54,0.00,,---,0.00,VWS V13.01,2013-05-20 12:25:00,
2013-05-20 05:30:00,63.9,47.9,21.56,NNW,335,4.0,6.0,56,0.00,,---,0.00,VWS V13.01,2013-05-20 12:30:00,
2013-05-20 05:35:00,63.9,47.4,21.56,North,356,4.0,11.0,55,0.00,,---,0.00,VWS V13.01,2013-05-20 12:35:00,
2013-05-20 05:40:00,63.8,47.3,21.56,North,357,4.0,11.0,55,0.00,,---,0.00,VWS V13.01,2013-05-20 12:40:00,
2013-05-20 05:45:00,63.7,47.2,21.56,NNW,336,3.0,11.0,55,0.00,,---,0.00,VWS V13.01,2013-05-20 12:45:00,
2013-05-20 05:50:00,63.7,47.2,21.57,North,353,1.0,11.0,55,0.00,,---,0.00,VWS V13.01,2013-05-20 12:50:00,
2013-05-20 05:55:00,63.6,47.6,21.57,North,355,1.0,11.0,56,0.00,,---,0.00,VWS V13.01,2013-05-20 12:55:00,
2013-05-20 06:00:00,63.5,47.5,21.57,NNW,348,1.0,3.0,56,0.00,,---,0.00,VWS V13.01,2013-05-20 13:00:00,
2013-05-20 06:05:00,63.4,47.5,21.57,North,354,2.0,5.0,56,0.00,,---,0.00,VWS V13.01,2013-05-20 13:05:00,
2013-05-20 06:10:00,63.3,47.3,21.58,North,354,6.0,7.0,56,0.00,,---,0.00,VWS V13.01,2013-05-20 13:10:00,
2013-05-20 06:15:00,63.3,47.3,21.58,North,358,5.0,7.0,56,0.00,,---,0.00,VWS V13.01,2013-05-20 13:15:00,
2013-05-20 06:21:00,63.3,47.3,21.58,North,352,4.0,7.0,56,0.00,,---,0.00,VWS V13.01,2013-05-20 13:21:00,
2013-05-20 06:26:00,63.3,47.8,21.58,NNW,344,5.0,8.0,57,0.00,,---,0.00,VWS V13.01,2013-05-20 13:26:00,
2013-05-20 06:31:00,63.3,47.8,21.58,NNW,348,3.0,3.0,57,0.00,,---,0.00,VWS V13.01,2013-05-20 13:31:00,
2013-05-20 06:36:00,63.4,47.5,21.58,NNW,334,5.0,10.0,56,0.00,,---,0.00,VWS V13.01,2013-05-20 13:36:00,
2013-05-20 06:41:00,63.4,47.5,21.58,NNW,330,3.0,10.0,56,0.00,,---,0.00,VWS V13.01,2013-05-20 13:41:00,
2013-05-20 06:46:00,63.5,48.0,21.59,NNW,338,2.0,10.0,57,0.00,,---,0.00,VWS V13.01,2013-05-20 13:46:00,
2013-05-20 06:51:00,63.6,47.6,21.59,NNW,348,0.0,10.0,56,0.00,,---,0.00,VWS V13.01,2013-05-20 13:51:00,
2013-05-20 06:56:00,63.6,48.1,21.59,NNW,348,3.0,10.0,57,0.00,,---,0.00,VWS V13.01,2013-05-20 13:56:00,
2013-05-20 07:01:00,63.8,48.3,21.59,NNW,348,0.0,2.0,57,0.00,,---,0.00,VWS V13.01,2013-05-20 14:01:00,
2013-05-20 07:06:00,64.0,48.5,21.59,NNW,348,2.0,4.0,57,0.00,,---,0.00,VWS V13.01,2013-05-20 14:06:00,
2013-05-20 07:11:00,64.2,48.7,21.59,NNW,348,3.0,5.0,57,0.00,,---,0.00,VWS V13.01,2013-05-20 14:11:00,
2013-05-20 07:16:00,64.4,48.8,21.60,NNW,348,2.0,5.0,57,0.00,,---,0.00,VWS V13.01,2013-05-20 14:16:00,
2013-05-20 07:21:00,64.7,48.7,21.60,NNW,343,2.0,8.0,56,0.00,,---,0.00,VWS V13.01,2013-05-20 14:21:00,
2013-05-20 07:26:00,65.1,48.5,21.60,NNW,342,3.0,8.0,55,0.00,,---,0.00,VWS V13.01,2013-05-20 14:26:00,
2013-05-20 07:31:00,65.5,48.9,21.60,NNW,343,2.0,2.0,55,0.00,,---,0.00,VWS V13.01,2013-05-20 14:31:00,
2013-05-20 07:36:00,65.8,48.7,21.60,NNW,342,2.0,5.0,54,0.00,,---,0.00,VWS V13.01,2013-05-20 14:36:00,
2013-05-20 07:41:00,66.2,49.1,21.61,NNW,337,4.0,7.0,54,0.00,,---,0.00,VWS V13.01,2013-05-20 14:41:00,
2013-05-20 07:46:00,66.5,48.9,21.60,NNW,343,3.0,7.0,53,0.00,,---,0.00,VWS V13.01,2013-05-20 14:46:00,
2013-05-20 07:51:00,67.1,49.4,21.61,North,358,4.0,7.0,53,0.00,,---,0.00,VWS V13.01,2013-05-20 14:51:00,
2013-05-20 07:56:00,67.4,48.7,21.60,NNW,340,5.0,12.0,51,0.00,,---,0.00,VWS V13.01,2013-05-20 14:56:00,
2013-05-20 08:01:00,67.8,49.0,21.60,NNW,340,6.0,6.0,51,0.00,,---,0.00,VWS V13.01,2013-05-20 15:01:00,
2013-05-20 08:06:00,68.1,49.3,21.60,NNW,342,3.0,7.0,51,0.00,,---,0.00,VWS V13.01,2013-05-20 15:06:00,
2013-05-20 08:11:00,68.5,48.6,21.60,NNW,328,5.0,10.0,49,0.00,,---,0.00,VWS V13.01,2013-05-20 15:11:00,
2013-05-20 08:16:00,68.8,48.9,21.60,NNW,345,4.0,11.0,49,0.00,,---,0.00,VWS V13.01,2013-05-20 15:16:00,
2013-05-20 08:21:00,69.1,49.2,21.60,NNW,334,4.0,11.0,49,0.00,,---,0.00,VWS V13.01,2013-05-20 15:21:00,
2013-05-20 08:26:00,69.5,49.0,21.60,NNW,328,8.0,11.0,48,0.00,,---,0.00,VWS V13.01,2013-05-20 15:26:00,
2013-05-20 08:31:00,69.8,49.2,21.61,NNW,337,5.0,7.0,48,0.00,,---,0.00,VWS V13.01,2013-05-20 15:31:00,
2013-05-20 08:36:00,70.2,49.6,21.61,North,353,6.0,11.0,48,0.00,,---,0.00,VWS V13.01,2013-05-20 15:36:00,
2013-05-20 08:41:00,70.8,49.6,21.60,NNW,343,8.0,11.0,47,0.00,,---,0.00,VWS V13.01,2013-05-20 15:41:00,
2013-05-20 08:46:00,71.2,49.4,21.61,North,354,7.0,13.0,46,0.00,,---,0.00,VWS V13.01,2013-05-20 15:46:00,
2013-05-20 08:51:00,71.6,49.8,21.60,NNW,342,5.0,13.0,46,0.00,,---,0.00,VWS V13.01,2013-05-20 15:51:00,
2013-05-20 08:56:00,71.8,49.9,21.61,NW,307,6.0,13.0,46,0.00,,---,0.00,VWS V13.01,2013-05-20 15:56:00,
2013-05-20 09:01:00,72.1,49.0,21.61,North,358,5.0,8.0,44,0.00,,---,0.00,VWS V13.01,2013-05-20 16:01:00,
2013-05-20 09:06:00,72.5,48.8,21.61,North,355,5.0,12.0,43,0.00,,---,0.00,VWS V13.01,2013-05-20 16:06:00,
2013-05-20 09:11:00,72.9,48.5,21.61,NNW,345,8.0,12.0,42,0.00,,---,0.00,VWS V13.01,2013-05-20 16:11:00,
2013-05-20 09:16:00,73.2,48.8,21.61,North,350,5.0,12.0,42,0.00,,---,0.00,VWS V13.01,2013-05-20 16:16:00,
2013-05-20 09:21:00,73.8,49.3,21.61,North,354,8.0,12.0,42,0.00,,---,0.00,VWS V13.01,2013-05-20 16:21:00,
2013-05-20 09:26:00,74.2,49.0,21.61,North,356,3.0,12.0,41,0.00,,---,0.00,VWS V13.01,2013-05-20 16:26:00,
2013-05-20 09:31:00,74.5,47.9,21.61,NNW,334,10.0,10.0,39,0.00,,---,0.00,VWS V13.01,2013-05-20 16:31:00,
2013-05-20 09:36:00,74.8,47.5,21.60,NNW,340,5.0,12.0,38,0.00,,---,0.00,VWS V13.01,2013-05-20 16:36:00,
2013-05-20 09:41:00,75.1,47.8,21.60,NW,325,3.0,12.0,38,0.00,,---,0.00,VWS V13.01,2013-05-20 16:41:00,
2013-05-20 09:46:00,75.4,48.0,21.60,North,350,7.0,12.0,38,0.00,,---,0.00,VWS V13.01,2013-05-20 16:46:00,
2013-05-20 09:51:00,75.7,48.3,21.60,NNW,345,9.0,12.0,38,0.00,,---,0.00,VWS V13.01,2013-05-20 16:51:00,
2013-05-20 09:56:00,76.0,48.6,21.61,North,349,5.0,12.0,38,0.00,,---,0.00,VWS V13.01,2013-05-20 16:56:00,
2013-05-20 10:01:00,76.3,48.1,21.60,NW,326,4.0,11.0,37,0.00,,---,0.00,VWS V13.01,2013-05-20 17:01:00,
2013-05-20 10:06:00,76.5,47.6,21.60,NNW,347,7.0,11.0,36,0.00,,---,0.00,VWS V13.01,2013-05-20 17:06:00,
2013-05-20 10:11:00,76.9,48.7,21.60,NNW,338,8.0,11.0,37,0.00,,---,0.00,VWS V13.01,2013-05-20 17:11:00,
2013-05-20 10:16:00,77.3,48.3,21.59,NNW,339,8.0,11.0,36,0.00,,---,0.00,VWS V13.01,2013-05-20 17:16:00,
2013-05-20 10:21:00,77.7,47.9,21.60,North,359,5.0,11.0,35,0.00,,---,0.00,VWS V13.01,2013-05-20 17:21:00,
2013-05-20 10:26:00,78.1,49.0,21.59,North,357,4.0,11.0,36,0.00,,---,0.00,VWS V13.01,2013-05-20 17:26:00,
2013-05-20 10:31:00,78.4,49.3,21.59,NNW,342,3.0,8.0,36,0.00,,---,0.00,VWS V13.01,2013-05-20 17:31:00,
2013-05-20 10:36:00,78.7,48.8,21.60,NNW,341,5.0,12.0,35,0.00,,---,0.00,VWS V13.01,2013-05-20 17:36:00,
2013-05-20 10:41:00,79.1,49.1,21.59,WNW,299,5.0,12.0,35,0.00,,---,0.00,VWS V13.01,2013-05-20 17:41:00,
2013-05-20 10:46:00,79.4,48.6,21.60,NNW,334,6.0,12.0,34,0.00,,---,0.00,VWS V13.01,2013-05-20 17:46:00,
2013-05-20 10:51:00,79.5,48.7,21.59,NNW,337,5.0,12.0,34,0.00,,---,0.00,VWS V13.01,2013-05-20 17:51:00,
2013-05-20 10:56:00,79.9,49.0,21.59,NNW,335,9.0,13.0,34,0.00,,---,0.00,VWS V13.01,2013-05-20 17:56:00,
2013-05-20 11:01:00,80.5,48.8,21.59,NNW,339,7.0,7.0,33,0.00,,---,0.00,VWS V13.01,2013-05-20 18:01:00,
2013-05-20 11:06:00,80.9,49.1,21.58,NNW,329,12.0,14.0,33,0.00,,---,0.00,VWS V13.01,2013-05-20 18:06:00,
2013-05-20 11:11:00,81.2,49.4,21.58,NNW,328,5.0,14.0,33,0.00,,---,0.00,VWS V13.01,2013-05-20 18:11:00,
2013-05-20 11:16:00,81.5,48.0,21.58,North,358,10.0,14.0,31,0.00,,---,0.00,VWS V13.01,2013-05-20 18:16:00,
2013-05-20 11:21:00,81.8,48.2,21.58,North,354,9.0,14.0,31,0.00,,---,0.00,VWS V13.01,2013-05-20 18:21:00,
2013-05-20 11:26:00,82.1,48.5,21.59,NNW,335,8.0,14.0,31,0.00,,---,0.00,VWS V13.01,2013-05-20 18:26:00,
2013-05-20 11:31:00,82.1,47.6,21.59,NNW,347,4.0,9.0,30,0.00,,---,0.00,VWS V13.01,2013-05-20 18:31:00,
2013-05-20 11:36:00,82.2,47.7,21.59,NNE,14,8.0,10.0,30,0.00,,---,0.00,VWS V13.01,2013-05-20 18:36:00,
2013-05-20 11:41:00,82.6,48.9,21.59,NNW,334,9.0,13.0,31,0.00,,---,0.00,VWS V13.01,2013-05-20 18:41:00,
2013-05-20 11:46:00,82.7,47.2,21.60,North,357,9.0,13.0,29,0.00,,---,0.00,VWS V13.01,2013-05-20 18:46:00,
2013-05-20 11:51:00,83.1,47.6,21.60,North,352,2.0,13.0,29,0.00,,---,0.00,VWS V13.01,2013-05-20 18:51:00,
2013-05-20 11:56:00,83.2,45.8,21.60,NNW,344,8.0,14.0,27,0.00,,---,0.00,VWS V13.01,2013-05-20 18:56:00,
2013-05-20 12:01:00,83.3,45.9,21.60,North,357,8.0,9.0,27,0.00,,---,0.00,VWS V13.01,2013-05-20 19:01:00,
2013-05-20 12:06:00,83.3,45.9,21.60,NNW,336,8.0,11.0,27,0.00,,---,0.00,VWS V13.01,2013-05-20 19:06:00,
2013-05-20 12:11:00,83.4,46.9,21.60,North,354,4.0,13.0,28,0.00,,---,0.00,VWS V13.01,2013-05-20 19:11:00,
2013-05-20 12:16:00,83.9,47.3,21.60,NNW,339,4.0,13.0,28,0.00,,---,0.00,VWS V13.01,2013-05-20 19:16:00,
2013-05-20 12:21:00,84.3,47.7,21.59,North,354,11.0,14.0,28,0.00,,---,0.00,VWS V13.01,2013-05-20 19:21:00,
2013-05-20 12:26:00,84.6,47.0,21.60,NNW,345,10.0,14.0,27,0.00,,---,0.00,VWS V13.01,2013-05-20 19:26:00,
2013-05-20 12:31:00,85.1,47.4,21.60,North,353,4.0,9.0,27,0.00,,---,0.00,VWS V13.01,2013-05-20 19:31:00,
2013-05-20 12:36:00,85.3,46.6,21.60,NNW,338,9.0,13.0,26,0.00,,---,0.00,VWS V13.01,2013-05-20 19:36:00,
2013-05-20 12:41:00,85.1,47.4,21.60,North,352,5.0,13.0,27,0.00,,---,0.00,VWS V13.01,2013-05-20 19:41:00,
2013-05-20 12:46:00,85.4,47.7,21.60,North,5,6.0,13.0,27,0.00,,---,0.00,VWS V13.01,2013-05-20 19:46:00,
2013-05-20 12:51:00,85.8,48.0,21.60,North,0,2.0,13.0,27,0.00,,---,0.00,VWS V13.01,2013-05-20 19:51:00,
2013-05-20 12:56:00,86.1,48.2,21.60,North,353,5.0,13.0,27,0.00,,---,0.00,VWS V13.01,2013-05-20 19:56:00,
2013-05-20 13:01:00,86.3,48.4,21.60,North,358,6.0,7.0,27,0.00,,---,0.00,VWS V13.01,2013-05-20 20:01:00,
2013-05-20 13:06:00,86.6,47.7,21.60,NNW,342,5.0,9.0,26,0.00,,---,0.00,VWS V13.01,2013-05-20 20:06:00,
2013-05-20 13:11:00,86.8,48.8,21.60,North,0,1.0,10.0,27,0.00,,---,0.00,VWS V13.01,2013-05-20 20:11:00,
2013-05-20 13:16:00,87.3,46.1,21.60,North,356,4.0,10.0,24,0.00,,---,0.00,VWS V13.01,2013-05-20 20:16:00,
2013-05-20 13:21:00,87.7,49.6,21.60,North,358,2.0,10.0,27,0.00,,---,0.00,VWS V13.01,2013-05-20 20:21:00,
2013-05-20 13:26:00,88.2,49.0,21.60,North,356,4.0,10.0,26,0.00,,---,0.00,VWS V13.01,2013-05-20 20:26:00,
2013-05-20 13:31:00,88.2,49.0,21.60,NNW,329,5.0,8.0,26,0.00,,---,0.00,VWS V13.01,2013-05-20 20:31:00,
2013-05-20 13:36:00,88.6,49.4,21.59,North,359,6.0,8.0,26,0.00,,---,0.00,VWS V13.01,2013-05-20 20:36:00,
2013-05-20 13:41:00,88.8,47.4,21.59,North,358,5.0,12.0,24,0.00,,---,0.00,VWS V13.01,2013-05-20 20:41:00,
2013-05-20 13:46:00,88.8,47.4,21.58,NNW,344,4.0,12.0,24,0.00,,---,0.00,VWS V13.01,2013-05-20 20:46:00,
2013-05-20 13:51:00,88.8,47.4,21.58,North,353,1.0,12.0,24,0.00,,---,0.00,VWS V13.01,2013-05-20 20:51:00,
2013-05-20 13:56:00,88.9,47.5,21.58,North,351,3.0,12.0,24,0.00,,---,0.00,VWS V13.01,2013-05-20 20:56:00,
2013-05-20 14:01:00,89.3,47.8,21.58,North,357,5.0,9.0,24,0.00,,---,0.00,VWS V13.01,2013-05-20 21:01:00,
2013-05-20 14:06:00,89.6,50.2,21.57,NW,317,7.0,10.0,26,0.00,,---,0.00,VWS V13.01,2013-05-20 21:06:00,
2013-05-20 14:11:00,90.1,50.6,21.57,WNW,282,3.0,10.0,26,0.00,,---,0.00,VWS V13.01,2013-05-20 21:11:00,
2013-05-20 14:16:00,90.0,48.4,21.57,North,355,5.0,11.0,24,0.00,,---,0.00,VWS V13.01,2013-05-20 21:16:00,
2013-05-20 14:21:00,90.0,48.4,21.57,NW,325,4.0,11.0,24,0.00,,---,0.00,VWS V13.01,2013-05-20 21:21:00,
2013-05-20 14:27:00,89.9,48.3,21.56,NNW,332,5.0,11.0,24,0.00,,---,0.00,VWS V13.01,2013-05-20 21:27:00,
2013-05-20 14:32:00,89.8,49.3,21.56,West,260,5.0,6.0,25,0.00,,---,0.00,VWS V13.01,2013-05-20 21:32:00,
2013-05-20 14:37:00,90.2,48.6,21.55,WNW,283,4.0,10.0,24,0.00,,---,0.00,VWS V13.01,2013-05-20 21:37:00,
2013-05-20 14:42:00,90.3,48.7,21.55,West,260,3.0,10.0,24,0.00,,---,0.00,VWS V13.01,2013-05-20 21:42:00,
2013-05-20 14:47:00,90.0,48.4,21.55,NW,326,5.0,10.0,24,0.00,,---,0.00,VWS V13.01,2013-05-20 21:47:00,
2013-05-20 14:52:00,90.1,48.5,21.55,WNW,288,4.0,10.0,24,0.00,,---,0.00,VWS V13.01,2013-05-20 21:52:00,
2013-05-20 14:57:00,90.0,47.3,21.54,NNW,340,6.0,10.0,23,0.00,,---,0.00,VWS V13.01,2013-05-20 21:57:00,
2013-05-20 15:02:00,89.6,48.1,21.55,NNW,332,2.0,3.0,24,0.00,,---,0.00,VWS V13.01,2013-05-20 22:02:00,
2013-05-20 15:07:00,89.2,46.6,21.54,NNW,333,1.0,10.0,23,0.00,,---,0.00,VWS V13.01,2013-05-20 22:07:00,
2013-05-20 15:12:00,88.8,47.4,21.53,WNW,284,3.0,10.0,24,0.00,,---,0.00,VWS V13.01,2013-05-20 22:12:00,
2013-05-20 15:17:00,88.8,49.5,21.53,WNW,287,2.0,10.0,26,0.00,,---,0.00,VWS V13.01,2013-05-20 22:17:00,
2013-05-20 15:22:00,89.0,47.6,21.52,WNW,297,4.0,10.0,24,0.00,,---,0.00,VWS V13.01,2013-05-20 22:22:00,
2013-05-20 15:27:00,88.9,47.5,21.52,North,0,1.0,10.0,24,0.00,,---,0.00,VWS V13.01,2013-05-20 22:27:00,
2013-05-20 15:32:00,88.6,47.2,21.52,NNW,340,2.0,5.0,24,0.00,,---,0.00,VWS V13.01,2013-05-20 22:32:00,
2013-05-20 15:37:00,88.4,47.1,21.51,North,0,0.0,7.0,24,0.00,,---,0.00,VWS V13.01,2013-05-20 22:37:00,
2013-05-20 15:42:00,88.4,47.1,21.51,North,0,3.0,7.0,24,0.00,,---,0.00,VWS V13.01,2013-05-20 22:42:00,
2013-05-20 15:47:00,88.3,47.0,21.50,North,351,2.0,8.0,24,0.00,,---,0.00,VWS V13.01,2013-05-20 22:47:00,
2013-05-20 15:52:00,88.3,47.0,21.50,NNW,337,0.0,8.0,24,0.00,,---,0.00,VWS V13.01,2013-05-20 22:52:00,
2013-05-20 15:57:00,88.2,46.9,21.49,NNW,348,1.0,8.0,24,0.00,,---,0.00,VWS V13.01,2013-05-20 22:57:00,
2013-05-20 16:02:00,88.3,45.8,21.49,NNW,347,0.0,4.0,23,0.00,,---,0.00,VWS V13.01,2013-05-20 23:02:00,
2013-05-20 16:07:00,88.3,44.7,21.49,NNW,346,5.0,6.0,22,0.00,,---,0.00,VWS V13.01,2013-05-20 23:07:00,
2013-05-20 16:12:00,88.1,43.3,21.48,NNW,346,1.0,6.0,21,0.00,,---,0.00,VWS V13.01,2013-05-20 23:12:00,
2013-05-20 16:17:00,88.2,43.4,21.48,NNW,341,4.0,7.0,21,0.00,,---,0.00,VWS V13.01,2013-05-20 23:17:00,
2013-05-20 16:22:00,88.3,43.5,21.48,NNW,338,5.0,9.0,21,0.00,,---,0.00,VWS V13.01,2013-05-20 23:22:00,
2013-05-20 16:27:00,88.2,45.8,21.48,NW,317,3.0,9.0,23,0.00,,---,0.00,VWS V13.01,2013-05-20 23:27:00,
2013-05-20 16:32:00,88.4,44.8,21.48,NNW,333,5.0,9.0,22,0.00,,---,0.00,VWS V13.01,2013-05-20 23:32:00,
2013-05-20 16:37:00,88.6,46.1,21.47,NNW,346,5.0,9.0,23,0.00,,---,0.00,VWS V13.01,2013-05-20 23:37:00,
2013-05-20 16:42:00,88.5,44.8,21.47,WNW,287,2.0,9.0,22,0.00,,---,0.00,VWS V13.01,2013-05-20 23:42:00,
2013-05-20 16:47:00,88.5,47.1,21.47,West,270,0.0,9.0,24,0.00,,---,0.00,VWS V13.01,2013-05-20 23:47:00,
2013-05-20 16:52:00,88.5,46.0,21.46,SW,227,6.0,9.0,23,0.00,,---,0.00,VWS V13.01,2013-05-20 23:52:00,
2013-05-20 16:57:00,88.5,47.1,21.46,SW,229,3.0,9.0,24,0.00,,---,0.00,VWS V13.01,2013-05-20 23:57:00,
2013-05-20 17:02:00,88.5,46.0,21.45,WSW,240,4.0,4.0,23,0.00,,---,0.00,VWS V13.01,2013-05-21 00:02:00,
2013-05-20 17:07:00,88.4,44.8,21.45,West,271,4.0,6.0,22,0.00,,---,0.00,VWS V13.01,2013-05-21 00:07:00,
2013-05-20 17:12:00,88.2,45.8,21.45,WNW,282,0.0,6.0,23,0.00,,---,0.00,VWS V13.01,2013-05-21 00:12:00,
2013-05-20 17:17:00,88.2,45.8,21.45,WSW,240,4.0,6.0,23,0.00,,---,0.00,VWS V13.01,2013-05-21 00:17:00,
2013-05-20 17:22:00,88.0,46.7,21.45,WSW,240,3.0,6.0,24,0.00,,---,0.00,VWS V13.01,2013-05-21 00:22:00,
2013-05-20 17:27:00,87.9,46.6,21.45,West,270,4.0,6.0,24,0.00,,---,0.00,VWS V13.01,2013-05-21 00:27:00,
2013-05-20 17:32:00,87.7,45.3,21.45,West,261,4.0,5.0,23,0.00,,---,0.00,VWS V13.01,2013-05-21 00:32:00,
2013-05-20 17:37:00,87.5,46.3,21.45,West,261,3.0,5.0,24,0.00,,---,0.00,VWS V13.01,2013-05-21 00:37:00,
2013-05-20 17:42:00,87.4,46.2,21.45,West,271,3.0,6.0,24,0.00,,---,0.00,VWS V13.01,2013-05-21 00:42:00,
2013-05-20 17:47:00,87.5,46.3,21.45,West,266,5.0,6.0,24,0.00,,---,0.00,VWS V13.01,2013-05-21 00:47:00,
2013-05-20 17:52:00,87.2,46.0,21.45,West,275,4.0,6.0,24,0.00,,---,0.00,VWS V13.01,2013-05-21 00:52:00,
2013-05-20 17:57:00,87.2,46.0,21.45,WNW,285,3.0,6.0,24,0.00,,---,0.00,VWS V13.01,2013-05-21 00:57:00,
2013-05-20 18:02:00,87.1,46.0,21.45,WNW,286,4.0,4.0,24,0.00,,---,0.00,VWS V13.01,2013-05-21 01:02:00,
2013-05-20 18:07:00,87.1,46.0,21.45,West,279,2.0,5.0,24,0.00,,---,0.00,VWS V13.01,2013-05-21 01:07:00,
2013-05-20 18:12:00,87.0,45.9,21.45,West,279,0.0,5.0,24,0.00,,---,0.00,VWS V13.01,2013-05-21 01:12:00,
2013-05-20 18:17:00,86.8,45.7,21.46,West,279,2.0,5.0,24,0.00,,---,0.00,VWS V13.01,2013-05-21 01:17:00,
2013-05-20 18:22:00,86.6,46.6,21.45,West,272,3.0,8.0,25,0.00,,---,0.00,VWS V13.01,2013-05-21 01:22:00,
2013-05-20 18:27:00,86.5,46.5,21.45,West,272,1.0,8.0,25,0.00,,---,0.00,VWS V13.01,2013-05-21 01:27:00,
2013-05-20 18:32:00,86.2,47.3,21.45,West,263,0.0,3.0,26,0.00,,---,0.00,VWS V13.01,2013-05-21 01:32:00,
2013-05-20 18:37:00,86.1,47.2,21.45,WSW,240,2.0,6.0,26,0.00,,---,0.00,VWS V13.01,2013-05-21 01:37:00,
2013-05-20 18:42:00,86.1,48.2,21.45,SW,236,4.0,8.0,27,0.00,,---,0.00,VWS V13.01,2013-05-21 01:42:00,
2013-05-20 18:47:00,86.0,49.1,21.46,WSW,258,10.0,10.0,28,0.00,,---,0.00,VWS V13.01,2013-05-21 01:47:00,
2013-05-20 18:52:00,85.6,48.8,21.45,West,259,4.0,10.0,28,0.00,,---,0.00,VWS V13.01,2013-05-21 01:52:00,
2013-05-20 18:57:00,85.3,49.5,21.45,SW,235,6.0,10.0,29,0.00,,---,0.00,VWS V13.01,2013-05-21 01:57:00,
2013-05-20 19:02:00,85.0,50.1,21.46,SW,230,5.0,6.0,30,0.00,,---,0.00,VWS V13.01,2013-05-21 02:02:00,
2013-05-20 19:07:00,84.7,49.9,21.46,West,265,7.0,10.0,30,0.00,,---,0.00,VWS V13.01,2013-05-21 02:07:00,
2013-05-20 19:12:00,84.5,50.6,21.47,WSW,254,3.0,10.0,31,0.00,,---,0.00,VWS V13.01,2013-05-21 02:12:00,
2013-05-20 19:17:00,84.3,50.4,21.46,SW,225,5.0,11.0,31,0.00,,---,0.00,VWS V13.01,2013-05-21 02:17:00,
2013-05-20 19:22:00,83.9,50.9,21.46,SW,218,6.0,11.0,32,0.00,,---,0.00,VWS V13.01,2013-05-21 02:22:00,
2013-05-20 19:27:00,83.5,49.7,21.47,SW,221,5.0,13.0,31,0.00,,---,0.00,VWS V13.01,2013-05-21 02:27:00,
2013-05-20 19:32:00,83.0,50.1,21.47,SW,226,4.0,8.0,32,0.00,,---,0.00,VWS V13.01,2013-05-21 02:32:00,
2013-05-20 19:37:00,82.4,50.4,21.47,WSW,243,3.0,9.0,33,0.00,,---,0.00,VWS V13.01,2013-05-21 02:37:00,
2013-05-20 19:42:00,81.9,50.0,21.47,WSW,246,5.0,9.0,33,0.00,,---,0.00,VWS V13.01,2013-05-21 02:42:00,
2013-05-20 19:47:00,81.4,49.6,21.47,WSW,244,4.0,9.0,33,0.00,,---,0.00,VWS V13.01,2013-05-21 02:47:00,
2013-05-20 19:52:00,81.0,50.0,21.47,WSW,240,4.0,9.0,34,0.00,,---,0.00,VWS V13.01,2013-05-21 02:52:00,
2013-05-20 19:57:00,80.6,50.5,21.48,WSW,240,3.0,9.0,35,0.00,,---,0.00,VWS V13.01,2013-05-21 02:57:00,
2013-05-20 20:02:00,80.3,50.9,21.48,WSW,241,2.0,4.0,36,0.00,,---,0.00,VWS V13.01,2013-05-21 03:02:00,
2013-05-20 20:07:00,79.8,50.5,21.48,WSW,239,4.0,5.0,36,0.00,,---,0.00,VWS V13.01,2013-05-21 03:07:00,
2013-05-20 20:12:00,79.4,50.9,21.48,WSW,241,3.0,5.0,37,0.00,,---,0.00,VWS V13.01,2013-05-21 03:12:00,
2013-05-20 20:17:00,78.9,51.2,21.48,WSW,241,2.0,5.0,38,0.00,,---,0.00,VWS V13.01,2013-05-21 03:17:00,
2013-05-20 20:22:00,78.4,51.4,21.49,WSW,241,2.0,5.0,39,0.00,,---,0.00,VWS V13.01,2013-05-21 03:22:00,
2013-05-20 20:27:00,78.0,51.1,21.49,WSW,241,2.0,5.0,39,0.00,,---,0.00,VWS V13.01,2013-05-21 03:27:00,
2013-05-20 20:32:00,77.6,52.1,21.49,WSW,240,0.0,4.0,41,0.00,,---,0.00,VWS V13.01,2013-05-21 03:32:00,
2013-05-20 20:37:00,77.1,52.3,21.49,WSW,240,0.0,4.0,42,0.00,,---,0.00,VWS V13.01,2013-05-21 03:37:00,
2013-05-20 20:42:00,76.7,51.9,21.49,WSW,237,1.0,4.0,42,0.00,,---,0.00,VWS V13.01,2013-05-21 03:42:00,
2013-05-20 20:47:00,76.4,51.6,21.49,SW,236,1.0,5.0,42,0.00,,---,0.00,VWS V13.01,2013-05-21 03:47:00,
2013-05-20 20:52:00,76.1,51.4,21.50,SW,236,2.0,5.0,42,0.00,,---,0.00,VWS V13.01,2013-05-21 03:52:00,
2013-05-20 20:57:00,75.5,53.9,21.50,SW,233,0.0,5.0,47,0.00,,---,0.00,VWS V13.01,2013-05-21 03:57:00,
2013-05-20 21:01:00,75.1,52.9,21.50,SW,233,1.0,4.0,46,0.00,,---,0.00,VWS V13.01,2013-05-21 04:01:00,
2013-05-20 21:02:00,75.0,52.2,21.50,SW,233,3.0,4.0,45,0.00,,---,0.00,VWS V13.01,2013-05-21 04:02:00,
2013-05-20 21:03:00,75.0,52.8,21.50,SW,233,0.0,4.0,46,0.00,,---,0.00,VWS V13.01,2013-05-21 04:03:00,
2013-05-20 21:04:00,74.9,52.8,21.50,SW,233,0.0,4.0,46,0.00,,---,0.00,VWS V13.01,2013-05-21 04:04:00,
2013-05-20 21:05:00,74.8,52.1,21.50,SW,233,0.0,4.0,45,0.00,,---,0.00,VWS V13.01,2013-05-21 04:05:00,
2013-05-20 21:10:00,74.6,52.5,21.50,SW,233,3.0,4.0,46,0.00,,---,0.00,VWS V13.01,2013-05-21 04:10:00,
2013-05-20 21:15:00,74.3,52.8,21.50,SW,233,2.0,4.0,47,0.00,,---,0.00,VWS V13.01,2013-05-21 04:15:00,
2013-05-20 21:20:00,74.2,54.4,21.51,SW,233,2.0,4.0,50,0.00,,---,0.00,VWS V13.01,2013-05-21 04:20:00,
2013-05-20 21:25:00,73.8,53.5,21.51,SW,233,1.0,4.0,49,0.00,,---,0.00,VWS V13.01,2013-05-21 04:25:00,
2013-05-20 21:30:00,73.6,54.9,21.51,SW,233,1.0,1.0,52,0.00,,---,0.00,VWS V13.01,2013-05-21 04:30:00,
2013-05-20 21:35:00,73.3,53.6,21.51,SW,233,0.0,3.0,50,0.00,,---,0.00,VWS V13.01,2013-05-21 04:35:00,
2013-05-20 21:40:00,73.0,53.8,21.51,SW,231,1.0,4.0,51,0.00,,---,0.00,VWS V13.01,2013-05-21 04:40:00,
2013-05-20 21:46:00,72.8,53.1,21.51,SW,229,1.0,4.0,50,0.00,,---,0.00,VWS V13.01,2013-05-21 04:46:00,
2013-05-20 21:51:00,72.5,52.8,21.51,SW,220,2.0,4.0,50,0.00,,---,0.00,VWS V13.01,2013-05-21 04:51:00,
2013-05-20 21:56:00,72.4,52.7,21.52,SW,220,2.0,5.0,50,0.00,,---,0.00,VWS V13.01,2013-05-21 04:56:00,
2013-05-20 22:01:00,72.1,52.5,21.52,SSW,196,1.0,3.0,50,0.00,,---,0.00,VWS V13.01,2013-05-21 05:01:00,
2013-05-20 22:06:00,71.8,52.2,21.52,South,186,2.0,5.0,50,0.00,,---,0.00,VWS V13.01,2013-05-21 05:06:00,
2013-05-20 22:11:00,71.4,52.9,21.51,South,191,4.0,5.0,52,0.00,,---,0.00,VWS V13.01,2013-05-21 05:11:00,
2013-05-20 22:16:00,71.1,52.1,21.51,SSW,194,5.0,5.0,51,0.00,,---,0.00,VWS V13.01,2013-05-21 05:16:00,
2013-05-20 22:21:00,70.7,52.2,21.51,SSW,202,1.0,5.0,52,0.00,,---,0.00,VWS V13.01,2013-05-21 05:21:00,
2013-05-20 22:26:00,70.3,51.3,21.51,SSW,208,2.0,5.0,51,0.00,,---,0.00,VWS V13.01,2013-05-21 05:26:00,
2013-05-20 22:31:00,70.0,51.6,21.50,SSW,208,4.0,4.0,52,0.00,,---,0.00,VWS V13.01,2013-05-21 05:31:00,
2013-05-20 22:36:00,69.6,51.7,21.50,SSW,208,4.0,5.0,53,0.00,,---,0.00,VWS V13.01,2013-05-21 05:36:00,
2013-05-20 22:41:00,69.3,52.0,21.50,SSW,208,2.0,5.0,54,0.00,,---,0.00,VWS V13.01,2013-05-21 05:41:00,
2013-05-20 22:46:00,69.0,51.7,21.50,SSW,209,2.0,5.0,54,0.00,,---,0.00,VWS V13.01,2013-05-21 05:46:00,
2013-05-20 22:51:00,68.7,51.4,21.50,SSW,211,2.0,5.0,54,0.00,,---,0.00,VWS V13.01,2013-05-21 05:51:00,
2013-05-20 22:56:00,68.3,51.5,21.50,SSW,212,4.0,5.0,55,0.00,,---,0.00,VWS V13.01,2013-05-21 05:56:00,
2013-05-20 23:01:00,67.9,51.2,21.49,SW,226,4.0,5.0,55,0.00,,---,0.00,VWS V13.01,2013-05-21 06:01:00,
2013-05-20 23:06:00,67.5,50.8,21.49,SW,235,3.0,7.0,55,0.00,,---,0.00,VWS V13.01,2013-05-21 06:06:00,
2013-05-20 23:11:00,67.1,50.4,21.49,WSW,238,4.0,7.0,55,0.00,,---,0.00,VWS V13.01,2013-05-21 06:11:00,
2013-05-20 23:16:00,66.8,52.0,21.49,SSE,149,2.0,7.0,59,0.00,,---,0.00,VWS V13.01,2013-05-21 06:16:00,
2013-05-20 23:21:00,66.6,50.9,21.49,South,170,4.0,7.0,57,0.00,,---,0.00,VWS V13.01,2013-05-21 06:21:00,
2013-05-20 23:26:00,66.5,49.8,21.48,SW,223,5.0,7.0,55,0.00,,---,0.00,VWS V13.01,2013-05-21 06:26:00,
2013-05-20 23:31:00,66.6,49.5,21.48,SW,233,4.0,8.0,54,0.00,,---,0.00,VWS V13.01,2013-05-21 06:31:00,
2013-05-20 23:36:00,66.5,49.4,21.47,SW,228,2.0,8.0,54,0.00,,---,0.00,VWS V13.01,2013-05-21 06:36:00,
2013-05-20 23:41:00,66.3,49.7,21.47,SSW,211,4.0,8.0,55,0.00,,---,0.00,VWS V13.01,2013-05-21 06:41:00,
2013-05-20 23:46:00,66.1,49.5,21.47,SSW,210,0.0,8.0,55,0.00,,---,0.00,VWS V13.01,2013-05-21 06:46:00,
2013-05-20 23:51:00,66.0,50.3,21.47,SSW,210,1.0,8.0,57,0.00,,---,0.00,VWS V13.01,2013-05-21 06:51:00,
2013-05-20 23:56:00,65.8,50.2,21.47,SSW,210,1.0,8.0,57,0.00,,---,0.00,VWS V13.01,2013-05-21 06:56:00,